Presure
148 101 170 80 146 117 176 135 150 199 143 110 187 151 141 170 130 147 148 113 111 126 177 126 111 138 124 113 161 115 123 159 165 173 158 175 166 161 183 174 163 187 163 129 131 132 129 126 123
190 114 191 98 131 190 170 181 186 143 170 89 111 187 121 207 144 181 123 116 146 170 164 166 125 156 124 130 133 126 86 125 107 125 127 156 182 192 180 169 174 207 215 161 171 125 129 136 134
184 182 164 174 193 160 186 192 182 172 163 138 173 170 160 142 199 183 150 213 111 174 174 149 171 120 188 101 157 114 90 81 137 167 144 176 146 154 196 200 200 203 196 199 191 179 171 126 126
104 188 181 154 169 166 84 182 103 177 90 181 181 198 194 156 119 142 147 123 140 207 132 104 211 216 107 218 163 211 199 202 80 78 123 170 171 174 199 158 169 168 111 173 178 146 194 194 205
188 183 184 180 185 178 159 167 181 167 139 181 190 141 133 191 192 196 193 112 199 199 141 197 155 203 161 135 132 210 193 207 160 199 76 140 193 177 173 174 200 143 170 176 163 168 177 188 135
189 186 175 176 182 180 182 175 95 175 180 184 179 138 183 189 165 190 169 192 189 167 153 189 194 196 140 154 192 180 197 191 189 228 201 176 207 169 207 205 187 207 156 173 191 183 178 191 199
183 173 179 176 178 184 177 179 174 181 172 173 181 175 180 183 187 182 185 188 187 119 159 159 181 183 189 196 105 188 225 151 212 150 154 214 198 169 236 203 190 216 198 194 219 223 209 204 201
186 197 205 198 195 186 179 185 179 176 177 164 179 178 186 186 179 181 129 178 165 181 183 179 182 137 186 176 166 158 183 166 203 234 244 227 236 227 188 225 240 216 205 207 93 215 204 194 207
194 183 177 192 183 186 180 179 175 176 134 179 177 178 177 126 172 167 173 172 176 175 176 150 165 181 186 129 193 171 197 221 215 153 215 213 225 214 205 149 200 196 174 203 201 203 208 199 193
191 183 188 175 183 180 174 176 169 170 169 143 170 171 174 144 180 186 175 177 173 174 132 182 179 175 139 199 219 84 185 216 232 172 176 222 220 204 208 206 197 211 195 193 203 185 204 205 182
205 192 195 188 178 181 171 171 168 167 168 171 171 145 171 176 180 173 177 178 175 178 195 197 203 171 120 117 211 133 217 216 230 213 83 153 205 215 206 200 207 208 222 199 187 189 186 189 204
188 174 174 178 197 192 178 174 171 171 171 174 177 174 177 175 173 178 188 206 199 186 173 196 190 166 191 196 202 208 168 219 180 193 216 201 204 205 198 212 197 208 209 219 188 192 176 173 172
176 173 167 172 174 188 193 198 197 185 185 187 135 191 193 192 188 187 180 182 183 158 189 194 192 200 202 211 205 212 212 207 188 210 198 216 210 209 206 201 198 209 211 213 210 191 188 181 171
164 176 196 168 167 161 164 179 181 186 188 206 186 185 187 189 124 191 184 180 151 185 173 194 197 171 211 209 207 203 176 165 169 134 185 213 200 215 209 204 203 202 199 196 207 211 185 188 180
170 173 170 186 183 137 175 208 167 181 194 170 197 232 216 207 194 192 189 186 181 188 194 185 194 196 197 196 200 203 209 189 170 217 195 189 206 191 199 212 212 211 208 210 195 215 213 201 172
167 160 151 168 155 162 171 164 196 191 164 205 202 206 208 212 217 201 205 199 195 193 201 204 194 202 198 203 205 198 207 192 170 170 176 231 188 199 205 227 181 202 207 211 211 213 215 218 201
158 149 155 163 182 178 167 192 179 199 159 158 211 192 199 229 218 211 213 207 199 198 198 192 200 206 197 206 204 198 187 196 164 199 198 174 189 185 231 173 212 193 220 202 219 213 212 215 222
155 146 162 159 173 156 183 189 187 206 179 170 202 209 220 215 219 206 211 209 209 203 201 197 200 196 198 199 193 182 204 191 174 160 152 187 181 174 182 173 195 200 170 210 179 186 199 220 213
158 164 157 167 153 154 191 173 198 189 158 149 156 206 218 213 210 211 194 207 207 203 199 195 196 202 197 201 200 193 202 179 181 213 191 212 192 142 193 177 201 195 247 171 164 266 201 225 204
165 176 179 170 177 190 169 194 185 169 181 158 200 209 216 213 205 209 215 202 206 200 201 200 193 194 201 202 203 195 201 189 199 203 206 223 176 182 217 219 233 211 246 213 221 194 213 229 243
179 153 172 164 192 167 168 180 194 184 175 148 205 209 205 208 204 208 211 217 215 209 203 198 207 209 211 209 206 211 213 215 217 219 218 202 219 230 211 236 239 236 232 248 249 270 243 265 286
163 168 185 187 192 151 187 201 143 187 185 202 212 208 197 204 214 212 211 208 203 209 205 210 206 202 202 203 213 215 214 218 214 217 227 219 221 239 236 241 245 239 251 260 269 265 267 274 269
180 184 189 170 195 199 157 169 184 185 204 169 201 197 199 216 214 219 208 219 220 218 213 210 202 210 204 212 213 213 214 216 221 219 224 229 227 240 230 243 253 248 267 269 265 269 279 299 305
182 179 167 198 199 180 185 191 191 167 172 163 208 152 213 201 228 228 225 230 216 220 229 220 216 223 218 235 229 216 215 216 228 232 223 216 222 232 242 252 262 266 265 261 273 273 309 304 302
187 202 171 180 183 197 182 186 186 112 194 196 226 227 217 223 222 143 191 233 144 231 226 231 234 233 235 231 233 236 225 224 236 246 249 243 245 264 266 270 264 266 267 267 288 297 294 295 272
195 200 201 204 206 202 198 199 193 208 212 127 239 222 222 230 101 243 237 256 251 252 251 252 259 256 251 248 245 245 242 252 248 253 266 274 273 272 274 267 268 274 295 292 284 279 281 283 304
204 199 205 213 207 202 203 210 202 220 225 231 243 253 255 254 104 178 255 250 251 256 254 253 257 261 257 257 257 260 259 261 277 274 278 276 261 268 255 266 286 280 274 269 280 279 299 294 300
218 220 217 220 220 227 246 233 236 237 241 257 259 265 259 280 279 271 269 269 264 266 268 265 261 273 277 277 278 277 271 274 271 270 260 267 251 259 271 263 269 266 319 292 284 287 288 291 168
222 224 224 223 233 230 255 245 252 271 270 272 269 270 276 272 273 270 265 262 266 271 267 264 263 260 269 267 263 265 265 281 283 285 291 285 264 255 254 259 254 298 178 274 277 281 237 273 279
227 229 236 252 239 255 264 275 277 272 271 275 281 274 270 272 277 277 276 277 275 329 323 318 315 315 315 317 317 305 316 292 289 275 257 249 251 249 247 243 250 289 265 262 265 281 271 192 275
Wind_Speed
54 45 45 31 52 49 45 50 66 45 52 53 52 61 57 63 53 58 65 52 50 56 75 56 53 62 57 51 69 55 56 65 66 72 66 74 71 70 75 73 73 72 72 59 59 59 55 51 46
43 50 42 46 38 42 51 43 37 47 56 34 50 52 60 52 38 60 60 52 62 71 66 71 59 68 60 59 61 64 26 62 43 59 60 67 70 76 72 74 76 72 69 71 53 55 57 61 58
41 43 55 50 42 65 52 40 42 54 50 65 54 57 57 51 49 53 56 56 52 69 68 64 73 56 76 35 64 50 27 21 59 66 70 77 69 71 72 72 71 67 64 64 64 67 65 56 54
43 40 42 51 57 49 39 42 45 50 40 50 51 46 49 67 59 65 56 59 58 53 62 44 59 59 28 60 73 67 75 76 18 16 53 78 76 75 73 71 71 72 44 69 64 64 56 57 55
40 39 42 44 47 49 60 57 55 59 53 52 48 63 62 48 49 49 52 57 55 55 63 58 57 57 62 59 70 61 62 66 49 71 17 55 79 80 76 70 72 63 71 71 68 70 67 64 55
41 42 44 45 45 42 51 56 42 59 52 52 53 51 52 52 58 53 57 57 54 56 60 59 59 60 56 51 59 63 62 67 66 68 69 70 72 65 70 67 72 66 57 58 65 67 67 61 57
42 47 45 47 49 44 51 59 56 50 55 61 54 59 57 57 54 54 57 57 56 64 72 69 63 63 60 59 34 58 64 71 63 69 67 53 66 68 56 69 60 59 66 68 47 44 52 53 54
43 40 38 40 43 42 50 51 53 56 56 53 57 57 60 57 57 57 65 59 55 60 63 63 66 66 65 58 61 49 58 67 61 53 52 57 53 55 70 51 48 54 57 55 34 44 50 55 46
38 42 44 38 46 43 48 50 55 55 51 58 58 59 61 50 61 61 60 63 62 63 66 66 69 69 69 55 65 60 45 54 55 53 49 51 51 53 59 60 56 56 74 55 53 50 49 53 51
41 43 36 49 43 43 48 49 56 51 58 53 64 64 65 58 62 61 64 64 66 66 54 69 69 71 59 67 51 37 51 51 41 51 53 45 48 54 54 57 55 55 59 56 50 57 48 49 58
34 36 38 41 47 46 49 53 55 61 58 68 68 60 68 66 64 68 69 70 69 67 76 76 66 66 55 56 54 49 49 47 44 48 33 56 50 48 56 56 58 57 55 61 57 48 52 53 50
32 33 35 37 46 50 53 56 56 64 63 61 71 64 68 70 70 70 72 67 69 71 69 67 64 65 65 61 57 52 56 49 53 50 48 52 52 53 57 55 60 59 57 60 62 55 66 60 63
42 37 42 39 43 45 50 54 55 60 63 62 50 67 68 69 70 71 73 74 71 67 73 71 69 69 66 61 58 53 52 56 59 50 50 49 54 54 58 59 61 56 57 56 62 66 63 59 63
38 43 38 46 48 54 55 51 54 57 65 59 64 66 69 70 53 70 72 74 63 74 70 73 72 68 69 64 59 56 59 53 55 57 55 53 52 55 57 60 62 63 63 57 61 64 66 69 63
46 47 45 48 48 66 58 47 57 50 66 67 67 60 70 75 71 72 74 72 76 77 78 74 71 71 70 62 61 58 59 60 55 56 58 55 58 57 56 62 64 64 64 66 68 67 68 73 70
51 51 60 57 54 56 59 61 52 55 68 61 63 55 64 69 73 73 76 75 76 77 78 77 73 72 71 67 64 60 58 60 59 57 53 57 58 58 58 62 58 64 67 70 69 70 71 69 77
55 57 52 58 60 64 62 70 67 63 67 72 70 66 66 67 70 67 74 75 74 75 77 76 76 73 72 71 65 62 67 65 58 62 64 60 63 57 61 58 66 62 71 69 75 76 73 74 76
61 61 62 66 74 59 70 71 80 76 67 68 74 80 77 71 66 70 71 73 74 76 78 79 79 77 74 70 65 65 70 69 64 66 63 68 63 61 62 59 68 67 62 72 64 63 68 80 77
69 74 63 75 64 65 79 68 78 82 64 72 73 82 82 73 64 74 76 76 75 76 79 80 81 83 78 78 75 69 75 70 70 76 73 72 74 59 74 61 68 67 71 68 62 79 71 81 79
74 77 82 78 82 90 73 85 82 80 84 67 88 92 87 80 73 73 79 82 83 82 84 84 81 82 86 84 84 75 77 74 77 75 73 79 73 71 76 75 79 77 76 72 85 64 75 74 91
86 65 83 77 95 81 74 82 94 92 88 67 96 95 90 87 86 84 83 82 84 87 88 88 92 92 92 92 89 91 90 90 90 87 83 76 83 88 82 85 85 83 80 82 84 85 80 79 82
80 86 95 98 99 67 101 91 77 100 96 110 108 103 93 96 95 91 89 89 86 89 89 89 90 89 89 88 96 97 91 92 85 86 93 89 88 95 92 91 90 86 87 86 87 86 83 84 82
91 97 102 86 105 98 83 82 96 102 112 88 111 104 106 107 105 97 94 92 94 97 98 97 91 95 89 96 95 94 92 93 95 86 93 96 91 100 89 95 92 91 89 86 85 84 84 81 71
103 95 79 101 106 93 103 109 107 92 92 86 123 77 114 102 104 99 99 98 100 99 101 103 103 103 101 107 107 97 93 93 106 105 92 81 89 96 96 93 90 87 87 86 83 80 72 68 68
115 117 89 94 99 109 104 110 121 48 114 119 122 116 113 113 109 59 83 101 64 103 105 106 106 106 106 105 107 106 100 95 99 104 102 99 97 93 89 85 83 81 83 80 78 71 67 66 63
121 122 119 117 110 113 117 116 121 126 124 45 115 113 114 112 34 106 106 98 104 104 105 101 100 98 100 102 104 105 104 102 102 100 93 86 81 79 81 79 79 78 72 68 64 66 64 60 57
123 124 122 121 118 114 116 118 126 122 123 117 116 108 109 105 40 61 93 94 96 96 98 96 96 95 95 96 96 95 93 92 83 80 77 72 70 67 68 70 59 60 59 61 60 50 53 54 54
118 121 121 119 120 119 113 116 115 113 111 107 104 98 101 91 87 86 88 88 88 88 87 86 87 85 83 82 81 79 78 76 74 70 67 67 64 60 52 54 53 54 35 43 48 47 48 49 54
121 117 117 116 115 118 109 106 107 92 88 87 86 86 85 84 81 79 78 78 79 79 80 80 79 77 77 76 74 73 73 65 62 58 45 36 41 48 49 47 46 37 43 41 41 42 43 41 46
120 119 120 115 111 106 97 86 84 82 84 81 78 75 77 80 80 77 76 74 74 45 43 42 43 44 44 43 40 42 33 38 32 32 37 42 44 45 45 45 43 37 41 41 42 38 33 33 43
Wind_Direction
273 269 274 265 269 268 270 265 260 268 264 269 265 264 266 264 269 263 266 273 274 268 259 269 272 273 275 276 270 274 273 272 268 271 266 266 268 268 268 264 267 270 267 268 268 270 272 271 270
277 272 279 272 276 270 266 272 267 273 266 276 269 265 266 264 263 262 270 273 268 264 266 266 270 267 271 269 267 271 286 270 267 272 274 268 272 270 271 268 270 274 276 269 276 269 271 271 271
274 272 270 272 274 265 268 273 269 264 265 264 270 271 268 271 268 268 262 262 279 266 266 269 267 273 268 264 273 276 275 288 272 273 271 273 270 268 272 274 273 272 271 276 276 273 273 270 269
276 272 268 268 262 272 271 272 268 272 276 270 272 284 274 268 266 264 264 264 268 270 269 275 273 275 280 273 271 271 268 269 280 278 275 273 273 272 271 271 269 270 257 271 271 271 273 276 279
270 267 268 272 274 276 269 270 275 269 271 278 284 265 266 276 276 276 273 265 275 275 265 274 270 278 273 271 268 276 271 273 276 271 274 272 268 272 272 268 270 271 270 270 271 269 271 272 269
269 269 265 269 268 273 269 270 265 273 282 288 277 277 280 280 272 280 274 278 280 276 273 277 281 280 275 280 280 272 276 270 274 273 270 269 268 270 266 265 267 268 267 269 267 271 273 271 271
270 267 270 269 271 264 268 266 271 276 273 274 282 280 283 281 288 284 286 285 284 271 272 272 280 279 280 285 279 269 278 273 268 269 271 269 270 270 264 264 266 265 267 269 260 254 257 261 261
269 267 263 262 262 261 262 267 268 272 274 278 278 285 284 286 282 283 266 282 283 286 286 282 284 264 284 274 275 275 283 267 273 271 268 271 264 265 262 265 257 264 265 260 270 256 252 259 253
264 268 268 261 262 261 259 266 268 273 273 281 282 281 279 270 277 275 277 277 279 280 281 270 277 285 286 277 287 276 277 275 275 269 273 270 264 260 262 265 258 258 269 257 259 256 251 250 258
276 275 264 270 266 266 270 271 273 273 275 273 277 276 279 277 281 283 277 279 277 278 271 279 279 281 281 287 285 281 279 276 264 267 264 266 263 262 263 263 257 254 256 256 252 263 254 251 261
282 279 265 261 264 260 258 263 263 269 265 267 270 272 273 277 279 276 278 279 276 277 282 283 286 277 270 267 289 262 279 275 266 269 278 261 260 261 261 263 262 259 254 248 255 256 255 260 254
288 276 279 284 269 264 266 265 263 265 264 264 271 270 272 273 273 276 280 285 284 282 278 285 288 276 286 285 286 281 262 281 267 268 264 266 262 256 256 255 261 261 258 250 250 243 259 262 264
288 285 274 283 284 281 275 270 269 268 272 271 271 277 276 276 276 276 277 278 279 275 282 287 285 288 288 291 285 288 283 278 273 273 266 265 261 257 255 256 254 254 257 255 248 246 246 249 258
274 278 282 283 280 271 275 287 283 281 279 284 277 276 277 277 270 276 274 276 274 280 279 285 287 281 291 292 287 283 268 271 257 266 272 267 266 261 258 258 256 256 256 254 248 245 248 241 245
290 290 282 286 285 281 287 299 275 286 282 279 277 297 281 279 279 278 277 277 278 279 280 281 283 286 286 285 286 281 286 274 259 284 270 271 268 265 267 263 260 259 256 252 258 247 244 236 253
287 280 266 284 274 281 285 280 289 281 277 290 284 291 289 282 280 278 277 276 276 278 280 282 282 284 284 285 283 277 282 272 265 264 266 276 267 269 267 263 263 264 263 260 254 249 246 244 234
279 272 284 288 290 293 284 295 284 293 273 277 306 283 285 294 282 281 278 278 277 277 277 280 283 283 283 285 283 277 270 274 271 274 272 262 271 270 269 263 266 263 260 261 260 260 254 248 243
278 272 282 285 288 275 294 294 295 302 280 281 300 306 306 296 292 281 278 276 274 275 277 280 282 282 282 282 277 271 281 270 269 263 264 268 271 268 270 268 271 265 260 261 262 260 262 257 253
282 284 282 285 276 280 297 284 298 294 271 277 283 303 304 296 294 282 282 281 280 279 278 279 280 280 282 281 278 273 279 268 270 282 269 278 271 262 269 265 269 270 276 259 261 264 258 256 254
284 287 288 287 291 298 286 300 294 286 288 272 299 302 300 298 291 285 279 280 277 278 278 279 282 282 281 281 279 274 275 268 276 275 275 283 267 271 281 278 286 275 280 268 262 258 265 260 252
287 277 287 283 297 287 284 291 296 295 287 279 300 301 298 300 294 291 284 278 275 274 275 278 276 277 278 280 280 280 280 281 282 283 283 271 282 289 281 287 286 281 274 280 272 272 266 262 265
284 285 292 294 294 277 293 291 279 294 294 298 299 299 296 296 290 286 285 284 282 278 277 276 275 277 278 279 278 279 280 281 280 281 285 284 285 290 289 287 286 283 281 279 276 274 272 272 267
284 287 291 284 292 292 282 283 293 295 297 293 296 295 293 291 289 285 283 278 274 274 274 276 280 277 281 278 279 280 281 283 284 285 285 287 287 288 286 286 284 284 277 274 274 277 278 276 269
287 285 281 289 290 288 291 292 294 293 292 291 291 287 287 287 285 282 281 277 278 276 272 272 274 274 276 274 275 279 280 279 280 281 283 281 284 286 286 284 281 277 275 277 281 278 276 270 266
288 290 284 286 287 288 289 288 286 285 286 286 288 287 287 287 286 280 281 279 274 276 275 274 274 274 276 277 277 277 279 279 280 281 282 283 284 283 282 281 281 281 279 281 280 275 273 268 265
288 286 286 285 285 282 284 285 285 285 287 269 284 283 284 283 273 284 284 278 277 277 277 277 278 277 277 277 277 278 279 278 279 280 282 283 283 282 281 282 282 282 281 277 275 274 274 271 266
282 284 283 281 279 281 282 282 282 286 286 285 285 285 283 284 273 283 280 279 278 277 275 275 276 274 274 276 277 278 278 280 281 281 282 283 284 284 282 283 280 280 277 274 272 267 268 268 264
279 278 281 281 281 282 284 282 283 284 287 287 285 281 283 283 280 278 278 278 278 278 277 276 276 277 277 278 278 279 280 280 280 282 283 284 282 280 276 279 281 279 266 266 269 266 269 268 259
279 279 279 282 284 284 287 287 287 286 283 279 279 280 282 283 283 281 280 279 280 278 277 275 277 278 279 278 280 280 280 278 278 278 276 273 272 274 278 281 281 272 267 269 271 272 265 271 266
275 279 281 283 283 286 288 285 283 281 281 282 282 283 283 283 283 284 283 282 280 284 282 281 280 280 283 282 281 280 276 278 272 270 268 272 271 276 280 280 289 269 270 263 272 276 262 263 274